Location: Zagreb
(45.8000°N, 16.0000°E)
Time: 15:26:00
(UTC+02:00)

Tiros 1 despin weight - All Passes

Search period start: 14 July 2024 00:00
Search period end: 24 July 2024 00:00
Orbit: 576 x 620 km, 48.2° (Epoch: 13 July)

Date Brightness Start Highest point End Pass type
(mag) Time Alt. Az. Time Alt. Az. Time Alt. Az.
14 Jul - 03:37:00 10° S 03:39:53 17° SE 03:42:47 10° E visible
14 Jul - 05:16:01 10° SW 05:20:23 65° SSE 05:24:49 10° ENE daylight
14 Jul - 06:57:10 10° W 07:01:34 65° N 07:06:04 10° ENE daylight
14 Jul - 08:38:27 10° WNW 08:42:58 79° NNE 08:47:31 10° ESE daylight
14 Jul - 10:19:43 10° W 10:23:55 39° SSW 10:28:09 10° SE daylight
15 Jul - 03:45:57 10° SSW 03:49:40 27° SE 03:53:26 10° E visible
15 Jul - 05:26:01 10° WSW 05:30:26 88° SSE 05:34:56 10° ENE daylight
15 Jul - 07:07:20 10° W 07:11:45 63° N 07:16:14 10° E daylight
15 Jul - 08:48:33 10° WNW 08:53:03 82° SSW 08:57:35 10° ESE daylight
15 Jul - 10:30:05 10° W 10:33:48 25° SW 10:37:32 10° SSE daylight
16 Jul - 03:55:25 10° SW 03:59:32 42° SSE 04:03:44 10° ENE visible
16 Jul - 05:36:07 10° W 05:40:32 75° NNW 05:45:00 10° ENE daylight
16 Jul - 07:17:28 10° WNW 07:21:55 67° N 07:26:25 10° E daylight
16 Jul - 08:58:39 10° WNW 09:03:04 59° SSW 09:07:32 10° SE daylight
16 Jul - 10:40:50 10° W 10:43:34 16° SW 10:46:18 10° S daylight
17 Jul - 02:26:14 10° S 02:28:59 17° SE 02:31:47 10° E visible
17 Jul - 04:05:10 10° SW 04:09:29 63° SSE 04:13:53 10° ENE visible
17 Jul - 05:46:16 10° W 05:50:40 65° N 05:55:07 10° ENE daylight
17 Jul - 07:27:34 10° WNW 07:32:02 78° NNE 07:36:34 10° E daylight
17 Jul - 09:08:49 10° WNW 09:13:00 40° SSW 09:17:14 10° SE daylight
18 Jul - 02:35:06 10° SSW 02:38:45 27° SE 02:42:27 10° E visible
18 Jul - 04:15:07 10° WSW 04:19:30 86° SSE 04:23:57 10° ENE visible
18 Jul - 05:56:25 10° W 06:00:48 63° N 06:05:15 10° E daylight
18 Jul - 07:37:38 10° WNW 07:42:06 83° SSW 07:46:38 10° ESE daylight
18 Jul - 09:19:07 10° W 09:22:52 26° SW 09:26:37 10° SSE daylight
19 Jul - 02:44:30 10° SW 02:48:36 41° SSE 02:52:45 10° ENE visible
19 Jul - 04:25:11 10° W 04:29:34 76° NNW 04:34:01 10° ENE visible
19 Jul - 06:06:32 10° WNW 06:10:56 66° N 06:15:24 10° E daylight
19 Jul - 07:47:42 10° WNW 07:52:06 60° SSW 07:56:33 10° SE daylight
19 Jul - 09:29:50 10° W 09:32:37 16° SW 09:35:24 10° S daylight
20 Jul - 01:15:23 10° S 01:18:03 16° SE 01:20:43 10° E visible
20 Jul - 02:54:13 10° SW 02:58:31 62° SSE 03:02:52 10° ENE visible
20 Jul - 04:35:19 10° W 04:39:40 66° N 04:44:06 10° ENE visible
20 Jul - 06:16:37 10° WNW 06:21:03 77° NNE 06:25:32 10° E daylight
20 Jul - 07:57:50 10° WNW 08:02:01 41° SSW 08:06:15 10° SE daylight
21 Jul - 01:24:10 10° SSW 01:27:46 26° SE 01:31:24 10° E visible
21 Jul - 03:04:08 10° WSW 03:08:30 85° SSE 03:12:55 10° ENE visible
21 Jul - 04:45:26 10° W 04:49:47 63° N 04:54:12 10° E visible
21 Jul - 06:26:39 10° WNW 06:31:05 85° SSW 06:35:35 10° ESE daylight
21 Jul - 08:08:07 10° W 08:11:51 26° SW 08:15:36 10° SSE daylight
22 Jul - 01:33:32 10° SW 01:37:35 40° SSE 01:41:41 10° ENE visible
22 Jul - 03:14:10 10° W 03:18:32 76° NNW 03:22:57 10° ENE visible
22 Jul - 04:55:31 10° WNW 04:59:53 66° N 05:04:20 10° E daylight
22 Jul - 06:36:41 10° WNW 06:41:03 62° SSW 06:45:28 10° SE daylight
22 Jul - 08:18:45 10° W 08:21:35 17° SW 08:24:24 10° S daylight
23 Jul - 00:04:28 10° S 00:07:00 15° SE 00:09:34 10° E visible
23 Jul - 01:43:12 10° SW 01:47:27 60° SSE 01:51:47 10° ENE visible
23 Jul - 03:24:16 10° W 03:28:36 66° N 03:33:00 10° ENE visible
23 Jul - 05:05:34 10° WNW 05:09:57 76° NNE 05:14:25 10° E daylight
23 Jul - 06:46:46 10° WNW 06:50:57 41° SSW 06:55:10 10° SE daylight
